WBANNO,USDM_WEEK,LONGITUDE,LATITUDE,SMVWC_5_CM_MEAN,SMANOM_5_CM_MEAN,SMPERC_5_CM_30COUNTS,SMPERC_5_CM_70COUNTS,SMVWC_10_CM_MEAN,SMANOM_10_CM_MEAN,SMPERC_10_CM_30COUNTS,SMPERC_10_CM_70COUNTS,SMVWC_20_CM_MEAN,SMANOM_20_CM_MEAN,SMPERC_20_CM_30COUNTS,SMPERC_20_CM_70COUNTS,SMVWC_50_CM_MEAN,SMANOM_50_CM_MEAN,SMPERC_50_CM_30COUNTS,SMPERC_50_CM_70COUNTS,SMVWC_100_CM_MEAN,SMANOM_100_CM_MEAN,SMPERC_100_CM_30COUNTS,SMPERC_100_CM_70COUNTS,SMVWC_TOP_CM_MEAN,SMANOM_TOP_CM_MEAN,SMPERC_TOP_CM_30COUNTS,SMPERC_TOP_CM_70COUNTS,SMVWC_COLUMN_CM_MEAN,SMANOM_COLUMN_CM_MEAN,SMPERC_COLUMN_CM_30COUNTS,SMPERC_COLUMN_CM_70COUNTS
53150,20110716,-119.82,37.76,,,,,,,,,,,,,,,,,,,,,,,,,,,,
53150,20110717,-119.82,37.76,,,,,,,,,,,,,,,,,,,,,,,,,,,,
53150,20110718,-119.82,37.76,,,,,,,,,,,,,,,,,,,,,,,,,,,,
53150,20110719,-119.82,37.76,,,,,,,,,,,,,,,,,,,,,,,,,,,,
53150,20110720,-119.82,37.76,,,,,,,,,,,,,,,,,,,,,,,,,,,,
53150,20110721,-119.82,37.76,,,,,,,,,,,,,,,,,,,,,,,,,,,,
53150,20110722,-119.82,37.76,0.029,1.11,0,1,0.088,2.64,0,1,0.068,6.46,0,1,0.074,8.05,0,1,0.086,3.79,0,1,0.059,2.46,0,1,0.069,4.6,0,1
53150,20110723,-119.82,37.76,0.029,1.14,0,1,0.087,2.61,0,1,0.067,6.36,0,1,0.072,7.85,0,1,0.087,4.03,0,1,0.058,2.47,0,1,0.069,4.66,0,1
53150,20110724,-119.82,37.76,0.028,1.12,0,1,0.086,2.55,0,1,0.066,6.3,0,1,0.069,7.56,0,1,0.088,4.33,0,1,0.057,2.44,0,1,0.067,4.69,0,1
53150,20110725,-119.82,37.76,0.027,1.1,0,1,0.084,2.49,0,1,0.065,6.21,0,1,0.066,7.22,0,1,0.088,4.52,0,1,0.056,2.41,0,1,0.066,4.69,0,1
53150,20110726,-119.82,37.76,0.027,1.09,0,1,0.082,2.41,0,1,0.063,5.96,0,1,0.063,6.93,0,1,0.088,4.72,0,1,0.054,2.36,0,1,0.065,4.66,0,1
53150,20110727,-119.82,37.76,0.026,1.08,0,1,0.08,2.32,0,1,0.061,5.7,0,1,0.061,6.68,0,1,0.088,4.87,0,1,0.053,2.32,0,1,0.063,4.63,0,1
53150,20110728,-119.82,37.76,0.027,1.13,0,1,0.078,2.21,0,1,0.06,5.48,0,1,0.06,6.47,0,1,0.087,4.97,0,1,0.052,2.3,0,1,0.062,4.63,0,1
53150,20110729,-119.82,37.76,0.027,1.16,0,1,0.075,2.1,0,1,0.058,5.26,0,1,0.058,6.26,0,1,0.087,5.04,0,1,0.051,2.26,0,1,0.061,4.58,0,1
53150,20110730,-119.82,37.76,0.026,1.14,0,1,0.073,1.97,0,1,0.057,5.04,0,1,0.057,6.02,0,1,0.086,5.09,0,1,0.05,2.17,0,1,0.06,4.49,0,1
53150,20110731,-119.82,37.76,0.026,1.12,0,1,0.07,1.85,0,1,0.055,4.76,0,1,0.055,5.78,0,1,0.085,5.09,0,1,0.048,2.08,0,1,0.058,4.37,0,1
53150,20110801,-119.82,37.76,0.025,1.1,0,0.982,0.068,1.72,0,1,0.053,4.49,0,1,0.053,5.49,0,1,0.084,5.09,0,1,0.046,1.97,0,1,0.057,4.24,0,1
53150,20110802,-119.82,37.76,0.024,1.04,0,0.94,0.065,1.59,0,1,0.052,4.31,0,1,0.051,5.11,0,1,0.083,5.02,0,1,0.045,1.83,0,1,0.055,4.09,0,1
53150,20110803,-119.82,37.76,0.022,0.96,0,0.857,0.063,1.46,0,1,0.05,4.11,0,1,0.049,4.8,0,1,0.082,4.96,0,1,0.043,1.67,0,1,0.053,3.93,0,1
53150,20110804,-119.82,37.76,0.02,0.81,0,0.762,0.06,1.33,0,1,0.049,3.89,0,1,0.047,4.53,0,1,0.081,4.89,0,1,0.04,1.45,0,1,0.051,3.71,0,1
53150,20110805,-119.82,37.76,0.017,0.67,0,0.667,0.058,1.2,0,1,0.047,3.72,0,1,0.045,4.26,0,1,0.08,4.78,0,1,0.037,1.22,0,1,0.05,3.5,0,1
53150,20110806,-119.82,37.76,0.015,0.52,0,0.548,0.055,1.09,0,0.994,0.046,3.54,0,1,0.043,3.98,0,1,0.079,4.69,0,1,0.035,1.01,0,0.97,0.048,3.28,0,1
53150,20110807,-119.82,37.76,0.013,0.36,0.006,0.417,0.053,0.97,0,0.964,0.045,3.37,0,1,0.041,3.73,0,1,0.078,4.62,0,1,0.033,0.79,0,0.893,0.046,3.05,0,1
53150,20110808,-119.82,37.76,0.011,0.2,0.048,0.292,0.051,0.87,0,0.917,0.044,3.23,0,1,0.039,3.52,0,1,0.077,4.51,0,1,0.031,0.59,0,0.774,0.044,2.82,0,1
53150,20110809,-119.82,37.76,0.009,0.09,0.077,0.19,0.049,0.76,0,0.798,0.042,3.08,0,1,0.037,3.36,0,1,0.076,4.43,0,1,0.029,0.42,0,0.631,0.043,2.61,0,1
53150,20110810,-119.82,37.76,0.008,-0.01,0.107,0.131,0.047,0.67,0,0.679,0.041,2.95,0,1,0.035,3.17,0,1,0.075,4.33,0,1,0.027,0.27,0.006,0.494,0.041,2.4,0,1
53150,20110811,-119.82,37.76,0.007,-0.11,0.18,0.084,0.045,0.58,0,0.542,0.04,2.77,0,1,0.034,2.94,0,1,0.073,4.19,0,1,0.026,0.14,0.03,0.353,0.04,2.19,0,1
53150,20110812,-119.82,37.76,0.006,-0.21,0.285,0.036,0.043,0.5,0,0.399,0.039,2.58,0,1,0.032,2.74,0,1,0.072,4.08,0,1,0.024,0.01,0.073,0.212,0.038,1.99,0,1
53150,20110813,-119.82,37.76,0.005,-0.27,0.363,0.013,0.041,0.42,0,0.262,0.038,2.4,0,1,0.031,2.55,0,1,0.071,3.92,0,1,0.023,-0.1,0.113,0.1,0.037,1.81,0,1
53150,20110814,-119.82,37.76,0.004,-0.32,0.439,0,0.04,0.35,0,0.149,0.037,2.2,0,1,0.03,2.32,0,1,0.069,3.76,0,1,0.022,-0.19,0.148,0.032,0.036,1.63,0,1
53150,20110815,-119.82,37.76,0.004,-0.35,0.507,0,0.038,0.26,0,0.054,0.036,1.9,0,1,0.028,2.07,0,1,0.068,3.6,0,1,0.022,-0.27,0.212,0.007,0.035,1.47,0,1
53150,20110816,-119.82,37.76,0.004,-0.39,0.596,0,0.037,0.19,0,0.03,0.035,1.67,0,1,0.027,1.81,0,1,0.067,3.42,0,1,0.021,-0.36,0.312,0.007,0.034,1.29,0,1
53150,20110817,-119.82,37.76,0.003,-0.44,0.696,0,0.036,0.11,0.012,0.006,0.034,1.49,0,1,0.026,1.55,0,1,0.065,3.23,0,1,0.02,-0.46,0.437,0,0.033,1.11,0,1
53150,20110818,-119.82,37.76,,,,,0.035,0.06,0.012,0,0.033,1.39,0,1,0.025,1.33,0,0.994,0.064,3.05,0,1,,,,,,,,
53150,20110819,-119.82,37.76,,,,,0.034,0,0.03,0,0.033,1.27,0,1,0.024,1.13,0,0.982,0.063,2.88,0,1,,,,,,,,
53150,20110820,-119.82,37.76,,,,,0.033,-0.06,0.083,0,0.032,1.18,0,1,0.023,0.95,0,0.976,0.061,2.72,0,1,,,,,,,,
53150,20110821,-119.82,37.76,,,,,0.032,-0.11,0.167,0,0.032,1.15,0,1,0.022,0.82,0,0.952,0.06,2.56,0,1,,,,,,,,
53150,20110822,-119.82,37.76,,,,,0.031,-0.15,0.256,0,0.032,1.14,0,0.994,0.022,0.65,0,0.857,0.059,2.39,0,1,,,,,,,,
53150,20110823,-119.82,37.76,,,,,0.03,-0.2,0.345,0,0.032,1.06,0,0.982,0.021,0.54,0,0.81,0.058,2.24,0,1,,,,,,,,
53150,20110824,-119.82,37.76,,,,,0.03,-0.22,0.417,0,0.031,0.94,0,0.958,0.021,0.49,0,0.804,0.057,2.11,0,1,,,,,,,,
53150,20110825,-119.82,37.76,,,,,0.029,-0.27,0.536,0,0.03,0.79,0,0.881,0.021,0.47,0,0.798,0.057,1.99,0,1,,,,,,,,
53150,20110826,-119.82,37.76,,,,,0.028,-0.31,0.661,0,0.029,0.64,0,0.786,0.02,0.41,0.006,0.744,0.056,1.86,0,1,,,,,,,,
53150,20110827,-119.82,37.76,,,,,0.028,-0.34,0.726,0,0.029,0.46,0.012,0.667,0.02,0.33,0.006,0.643,0.055,1.77,0,1,,,,,,,,
53150,20110828,-119.82,37.76,,,,,0.027,-0.38,0.78,0,0.027,0.23,0.089,0.524,0.02,0.25,0.012,0.548,0.054,1.68,0,1,,,,,,,,
53150,20110829,-119.82,37.76,,,,,0.027,-0.39,0.774,0,0.026,0.02,0.179,0.387,0.02,0.17,0.065,0.5,0.053,1.59,0,1,,,,,,,,
53150,20110830,-119.82,37.76,,,,,0.027,-0.41,0.804,0,0.026,-0.16,0.292,0.256,0.019,0.04,0.202,0.405,0.052,1.51,0,1,,,,,,,,
53150,20110831,-119.82,37.76,,,,,0.026,-0.43,0.845,0,0.025,-0.31,0.405,0.137,0.019,-0.11,0.31,0.268,0.052,1.42,0,1,,,,,,,,
53150,20110901,-119.82,37.76,,,,,0.026,-0.44,0.863,0,0.024,-0.47,0.53,0.071,0.018,-0.3,0.452,0.137,0.051,1.38,0,1,,,,,,,,
53150,20110902,-119.82,37.76,,,,,0.026,-0.45,0.851,0,0.023,-0.62,0.667,0.024,0.017,-0.45,0.589,0.06,0.05,1.34,0,1,,,,,,,,
53150,20110903,-119.82,37.76,,,,,0.026,-0.45,0.857,0,0.023,-0.74,0.786,0,0.017,-0.55,0.72,0.024,0.049,1.25,0,1,,,,,,,,
53150,20110904,-119.82,37.76,,,,,0.026,-0.45,0.857,0,0.022,-0.78,0.827,0,0.017,-0.64,0.839,0,0.049,1.29,0,1,,,,,,,,
53150,20110905,-119.82,37.76,,,,,0.025,-0.48,0.911,0,0.022,-0.82,0.857,0,0.016,-0.68,0.899,0.024,0.049,1.26,0,1,,,,,,,,
53150,20110906,-119.82,37.76,,,,,0.025,-0.49,0.929,0,0.022,-0.88,0.875,0,0.016,-0.69,0.887,0.042,0.051,1.48,0,1,,,,,,,,
53150,20110907,-119.82,37.76,,,,,0.025,-0.52,0.946,0,0.021,-0.97,0.905,0,0.016,-0.73,0.905,0.048,0.052,1.72,0,1,,,,,,,,
53150,20110908,-119.82,37.76,,,,,0.024,-0.55,0.952,0,0.021,-1.03,0.923,0,0.016,-0.72,0.887,0.054,0.054,1.88,0,1,,,,,,,,
53150,20110909,-119.82,37.76,,,,,0.024,-0.58,0.964,0,0.021,-1.09,0.929,0,0.016,-0.71,0.875,0.06,0.055,2.04,0,1,,,,,,,,
53150,20110910,-119.82,37.76,,,,,0.024,-0.61,0.982,0,0.02,-1.2,0.94,0,0.016,-0.66,0.851,0.089,0.055,2.03,0,0.988,,,,,,,,
53150,20110911,-119.82,37.76,,,,,0.023,-0.64,0.988,0,0.019,-1.36,0.964,0,0.016,-0.59,0.792,0.131,0.054,2.02,0,0.988,,,,,,,,
53150,20110912,-119.82,37.76,,,,,0.032,0.05,0.911,0.077,0.022,-0.74,0.905,0.083,0.016,-0.45,0.69,0.202,0.055,2.17,0,0.988,,,,,,,,
53150,20110913,-119.82,37.76,,,,,0.046,1.17,0.774,0.22,0.026,0.41,0.774,0.226,0.017,-0.26,0.565,0.31,0.054,2.1,0,0.982,,,,,,,,
53150,20110914,-119.82,37.76,,,,,0.057,2.08,0.631,0.363,0.031,1.56,0.631,0.369,0.018,-0.02,0.446,0.44,0.053,2.01,0,0.982,,,,,,,,
53150,20110915,-119.82,37.76,,,,,0.067,2.88,0.488,0.506,0.035,2.66,0.488,0.512,0.019,0.19,0.321,0.571,0.051,1.83,0,0.97,,,,,,,,
53150,20110916,-119.82,37.76,0.056,4.36,0.042,0.873,0.076,3.58,0.345,0.649,0.039,3.63,0.345,0.655,0.02,0.32,0.208,0.625,0.05,1.67,0,0.946,0.071,5.67,0.148,0.775,0.051,6.47,0.141,0.81
53150,20110917,-119.82,37.76,0.058,4.55,0.041,0.932,0.084,4.2,0.202,0.792,0.042,4.53,0.202,0.798,0.019,0.29,0.185,0.595,0.051,1.79,0,0.917,0.075,6.23,0.075,0.918,0.053,7.14,0.034,0.925
53150,20110918,-119.82,37.76,0.057,4.38,0.019,0.981,0.09,4.73,0.06,0.935,0.045,5.35,0.06,0.94,0.019,0.22,0.226,0.554,0.051,1.84,0,0.905,0.075,6.17,0.019,0.981,0.053,7.08,0.006,0.981
53150,20110919,-119.82,37.76,0.048,3.51,0,1,0.087,4.43,0,1,0.045,5.32,0,1,0.018,0.08,0.321,0.458,0.05,1.71,0,0.827,0.068,5.28,0,1,0.05,6.16,0,1
53150,20110920,-119.82,37.76,0.04,2.56,0,1,0.077,3.62,0,1,0.043,4.7,0,1,0.018,-0.09,0.429,0.333,0.05,1.67,0,0.821,0.059,4.18,0,1,0.045,4.99,0,1
53150,20110921,-119.82,37.76,0.035,2.03,0,1,0.069,2.94,0,1,0.04,4.01,0,1,0.017,-0.29,0.53,0.196,0.049,1.67,0,0.821,0.052,3.42,0,1,0.042,4.1,0,1
53150,20110922,-119.82,37.76,0.033,1.69,0,0.988,0.062,2.34,0,0.958,0.037,3.35,0,1,0.016,-0.5,0.643,0.06,0.05,1.8,0,0.827,0.048,2.81,0,1,0.04,3.37,0,1
53150,20110923,-119.82,37.76,0.032,1.45,0,0.988,0.056,1.78,0,0.875,0.035,2.76,0,1,0.015,-0.62,0.738,0,0.051,2.06,0,0.827,0.044,2.29,0,1,0.038,2.81,0,1
53150,20110924,-119.82,37.76,0.032,1.31,0,0.988,0.05,1.29,0,0.75,0.033,2.24,0,1,0.015,-0.63,0.786,0.012,0.052,2.23,0,0.851,0.041,1.86,0,1,0.036,2.33,0,1
53150,20110925,-119.82,37.76,0.032,1.2,0,0.988,0.045,0.87,0,0.607,0.031,1.75,0,0.976,0.016,-0.5,0.738,0.095,0.051,2.13,0,0.833,0.039,1.51,0,1,0.035,1.9,0,0.994
53150,20110926,-119.82,37.76,0.032,1.14,0,0.982,0.041,0.52,0.006,0.464,0.029,1.3,0.018,0.875,0.016,-0.36,0.679,0.19,0.05,2.03,0,0.875,0.037,1.24,0,0.946,0.034,1.57,0,0.946
53150,20110927,-119.82,37.76,0.032,1.09,0,0.905,0.038,0.26,0.054,0.327,0.028,0.94,0.018,0.762,0.017,-0.27,0.643,0.262,0.049,1.79,0,0.774,0.035,1.03,0,0.81,0.033,1.27,0,0.839
53150,20110928,-119.82,37.76,0.031,0.95,0,0.81,0.036,0.06,0.137,0.185,0.027,0.68,0.018,0.661,0.017,-0.21,0.625,0.304,0.047,1.56,0,0.768,0.034,0.81,0,0.679,0.032,0.99,0,0.726
53150,20110929,-119.82,37.76,0.029,0.77,0,0.679,0.035,-0.1,0.268,0.083,0.026,0.4,0.042,0.518,0.017,-0.18,0.619,0.339,0.045,1.31,0,0.762,0.032,0.59,0,0.536,0.03,0.72,0,0.583
53150,20110930,-119.82,37.76,0.026,0.6,0,0.536,0.033,-0.24,0.399,0.024,0.025,0.18,0.077,0.375,0.017,-0.13,0.607,0.381,0.043,0.94,0,0.726,0.03,0.39,0.03,0.393,0.029,0.46,0.018,0.44
53150,20111001,-119.82,37.76,0.023,0.44,0,0.393,0.032,-0.35,0.53,0.006,0.025,0.04,0.083,0.238,0.018,-0.07,0.542,0.417,0.042,0.68,0,0.714,0.028,0.22,0.107,0.25,0.028,0.26,0.048,0.298
53150,20111002,-119.82,37.76,0.021,0.3,0.006,0.25,0.031,-0.45,0.673,0.006,0.024,-0.05,0.137,0.119,0.018,-0.1,0.488,0.381,0.042,0.74,0,0.744,0.026,0.09,0.208,0.107,0.027,0.13,0.065,0.161
53150,20111003,-119.82,37.76,0.018,0.18,0.024,0.113,0.03,-0.53,0.81,0.006,0.024,-0.11,0.185,0.077,0.017,-0.11,0.44,0.363,0.043,1.05,0,0.78,0.024,-0.01,0.339,0.018,0.027,0.06,0.077,0.065
53150,20111004,-119.82,37.76,0.016,0.09,0.095,0.048,0.029,-0.62,0.905,0,0.024,-0.19,0.31,0.048,0.018,-0.08,0.369,0.357,0.045,1.34,0,0.893,0.023,-0.09,0.482,0.012,0.026,0.02,0.131,0.03
53150,20111005,-119.82,37.76,0.018,0.1,0.131,0.024,0.03,-0.59,0.946,0.012,0.023,-0.23,0.435,0.012,0.018,-0.06,0.286,0.327,0.046,1.63,0,0.899,0.024,-0.08,0.595,0.018,0.027,0.04,0.179,0.024
53150,20111006,-119.82,37.76,0.043,0.63,0.131,0.167,0.053,1.05,0.815,0.155,0.042,3.36,0.411,0.155,0.023,1,0.185,0.411,0.048,1.99,0,0.911,0.048,0.57,0.595,0.161,0.042,0.97,0.179,0.167
53150,20111007,-119.82,37.76,0.064,1.02,0.131,0.31,0.075,2.33,0.685,0.298,0.06,6.47,0.375,0.298,0.033,3.06,0.083,0.512,0.049,2.14,0,0.97,0.069,1.11,0.565,0.304,0.056,1.83,0.161,0.31
53150,20111008,-119.82,37.76,0.085,1.4,0.131,0.452,0.097,3.39,0.554,0.44,0.077,9.49,0.369,0.435,0.043,5.33,0.018,0.607,0.05,2.3,0,1,0.091,1.66,0.488,0.446,0.07,2.67,0.131,0.452
53150,20111009,-119.82,37.76,0.101,1.7,0.125,0.595,0.116,4.29,0.411,0.583,0.093,11.96,0.315,0.577,0.054,7.56,0.012,0.702,0.05,2.28,0,1,0.109,2.12,0.387,0.589,0.083,3.38,0.113,0.595
53150,20111010,-119.82,37.76,0.115,1.95,0.107,0.738,0.134,5.05,0.268,0.726,0.106,13.9,0.25,0.72,0.064,9.58,0.012,0.768,0.05,2.16,0,1,0.125,2.53,0.256,0.732,0.094,3.98,0.101,0.738
53150,20111011,-119.82,37.76,0.131,2.21,0.036,0.881,0.151,5.78,0.125,0.869,0.119,15.55,0.125,0.863,0.073,11.53,0.012,0.845,0.049,2.02,0,1,0.141,2.94,0.113,0.875,0.105,4.57,0.048,0.881
53150,20111012,-119.82,37.76,0.141,2.35,0,1,0.167,6.4,0,1,0.131,16.95,0,1,0.083,13.49,0.006,0.976,0.049,1.98,0,1,0.154,3.26,0,1,0.114,5.06,0,1
53150,20111013,-119.82,37.76,0.125,1.95,0,1,0.158,5.33,0,1,0.124,14.48,0,1,0.088,14.31,0,1,0.049,1.92,0,1,0.142,2.9,0,1,0.109,4.59,0,1
53150,20111014,-119.82,37.76,0.114,1.67,0,1,0.15,4.55,0,1,0.116,12.32,0,1,0.087,13.92,0,1,0.05,2.09,0,1,0.132,2.63,0,1,0.103,4.13,0,1
53150,20111015,-119.82,37.76,0.1,1.38,0,1,0.141,3.95,0,1,0.108,10.09,0,1,0.084,13.15,0,1,0.05,2.17,0,1,0.12,2.32,0,1,0.097,3.61,0,1
53150,20111016,-119.82,37.76,0.09,1.16,0,0.94,0.133,3.47,0,1,0.101,8.32,0,1,0.082,12.27,0,1,0.051,2.32,0,1,0.111,2.06,0,1,0.091,3.18,0,1
53150,20111017,-119.82,37.76,0.082,0.99,0,0.798,0.126,3.09,0,1,0.096,6.9,0,1,0.079,11.45,0,1,0.052,2.46,0,1,0.104,1.85,0,1,0.087,2.82,0,1
53150,20111018,-119.82,37.76,0.072,0.79,0,0.655,0.119,2.7,0,1,0.091,5.7,0,1,0.077,10.59,0,1,0.053,2.62,0,1,0.095,1.6,0,1,0.082,2.46,0,1
53150,20111019,-119.82,37.76,0.064,0.63,0,0.512,0.112,2.3,0,1,0.086,4.62,0,1,0.074,9.68,0,1,0.054,2.71,0,1,0.088,1.37,0,1,0.078,2.11,0,1
53150,20111020,-119.82,37.76,0.058,0.51,0,0.369,0.106,1.95,0,1,0.081,3.78,0,1,0.072,8.86,0,1,0.054,2.72,0,1,0.082,1.17,0,1,0.074,1.83,0,1
53150,20111021,-119.82,37.76,0.054,0.41,0,0.226,0.101,1.67,0,1,0.078,3.1,0,1,0.07,8.13,0,1,0.055,2.73,0,1,0.077,1,0,0.988,0.071,1.61,0,1
53150,20111022,-119.82,37.76,0.051,0.34,0,0.083,0.096,1.43,0,1,0.074,2.52,0,1,0.068,7.49,0,1,0.055,2.71,0,1,0.073,0.85,0,0.893,0.069,1.42,0,1
53150,20111023,-119.82,37.76,0.048,0.27,0,0,0.091,1.22,0,1,0.072,2.03,0,1,0.066,6.91,0,1,0.055,2.68,0,1,0.07,0.71,0,0.75,0.066,1.26,0,1
53150,20111024,-119.82,37.76,0.046,0.21,0,0,0.087,1.04,0,1,0.069,1.7,0,1,0.065,6.38,0,1,0.055,2.63,0,1,0.066,0.59,0,0.607,0.064,1.11,0,1
53150,20111025,-119.82,37.76,0.045,0.16,0,0,0.082,0.88,0,1,0.066,1.47,0,1,0.063,5.87,0,1,0.055,2.62,0,1,0.063,0.48,0,0.464,0.062,0.97,0,1
53150,20111026,-119.82,37.76,0.042,0.09,0,0,0.078,0.75,0,0.946,0.064,1.3,0,1,0.062,5.42,0,1,0.055,2.57,0,1,0.06,0.36,0,0.321,0.06,0.83,0,0.982
53150,20111027,-119.82,37.76,0.039,0.03,0,0,0.074,0.64,0,0.81,0.062,1.17,0,1,0.06,5.02,0,1,0.055,2.53,0,1,0.056,0.26,0,0.179,0.058,0.71,0,0.887
53150,20111028,-119.82,37.76,0.037,-0.02,0,0,0.07,0.54,0,0.667,0.06,1.06,0,1,0.059,4.62,0,1,0.055,2.49,0,1,0.053,0.16,0,0.048,0.056,0.59,0,0.744
53150,20111029,-119.82,37.76,0.035,-0.07,0.03,0,0.066,0.44,0,0.524,0.058,0.96,0,1,0.057,4.25,0,1,0.054,2.42,0,1,0.05,0.08,0,0,0.054,0.49,0,0.601
53150,20111030,-119.82,37.76,0.034,-0.1,0.036,0,0.063,0.35,0,0.381,0.057,0.87,0,1,0.056,3.9,0,1,0.054,2.37,0,1,0.048,0.03,0,0,0.053,0.41,0,0.458
53150,20111031,-119.82,37.76,0.035,-0.12,0.048,0,0.06,0.27,0,0.238,0.055,0.79,0,1,0.054,3.59,0,1,0.054,2.32,0,1,0.047,-0.02,0,0,0.052,0.34,0,0.315
53150,20111101,-119.82,37.76,0.035,-0.13,0.071,0,0.058,0.2,0,0.095,0.053,0.7,0,0.952,0.053,3.28,0,1,0.054,2.25,0,1,0.046,-0.05,0,0,0.051,0.28,0,0.173
53150,20111102,-119.82,37.76,0.036,-0.14,0.095,0,0.055,0.12,0,0.006,0.052,0.61,0,0.821,0.052,2.92,0,1,0.054,2.19,0,1,0.046,-0.09,0,0,0.05,0.22,0,0.048
53150,20111103,-119.82,37.76,0.037,-0.15,0.107,0,0.053,0.05,0,0,0.05,0.52,0,0.679,0.05,2.5,0,1,0.053,2.14,0,1,0.045,-0.11,0,0,0.049,0.17,0,0
53150,20111104,-119.82,37.76,0.038,-0.15,0.107,0,0.051,-0.01,0,0,0.049,0.43,0,0.536,0.048,2.13,0,1,0.053,2.06,0,1,0.045,-0.13,0,0,0.048,0.12,0,0
53150,20111105,-119.82,37.76,0.038,-0.16,0.095,0,0.051,-0.04,0,0,0.047,0.34,0,0.393,0.047,1.78,0,1,0.053,2,0,1,0.045,-0.14,0,0,0.047,0.09,0,0
53150,20111106,-119.82,37.76,0.039,-0.17,0.089,0,0.054,-0.05,0,0,0.046,0.28,0,0.25,0.046,1.46,0,1,0.052,1.88,0,1,0.046,-0.14,0,0,0.048,0.07,0,0
53150,20111107,-119.82,37.76,0.042,-0.16,0.077,0,0.058,-0.02,0,0,0.047,0.23,0,0.107,0.045,1.16,0,1,0.052,1.74,0,1,0.05,-0.11,0,0,0.049,0.06,0,0
53150,20111108,-119.82,37.76,0.05,-0.12,0.054,0.024,0.066,0.03,0,0.083,0.048,0.19,0,0.012,0.044,0.91,0,1,0.052,1.6,0,1,0.058,-0.06,0,0.077,0.052,0.09,0,0.077
53150,20111109,-119.82,37.76,0.062,-0.04,0.03,0.125,0.078,0.13,0,0.226,0.052,0.2,0,0.065,0.044,0.73,0,0.988,0.052,1.44,0,1,0.07,0.03,0,0.202,0.058,0.14,0,0.19
53150,20111110,-119.82,37.76,0.073,0.03,0.018,0.137,0.092,0.22,0,0.369,0.061,0.25,0,0.208,0.043,0.63,0,0.911,0.052,1.27,0,1,0.083,0.11,0,0.345,0.064,0.19,0,0.333
53150,20111111,-119.82,37.76,0.081,0.06,0.018,0.137,0.105,0.3,0,0.512,0.069,0.3,0,0.351,0.043,0.56,0,0.774,0.052,1.13,0,1,0.093,0.16,0,0.357,0.07,0.24,0,0.357
53150,20111112,-119.82,37.76,0.091,0.11,0,0.137,0.117,0.35,0,0.583,0.078,0.35,0,0.494,0.043,0.5,0,0.738,0.052,1,0,1,0.104,0.21,0,0.357,0.076,0.27,0,0.357
53150,20111113,-119.82,37.76,0.1,0.14,0,0.137,0.128,0.38,0,0.655,0.087,0.39,0,0.637,0.044,0.45,0,0.625,0.052,0.94,0,1,0.114,0.24,0,0.357,0.082,0.3,0,0.357
53150,20111114,-119.82,37.76,0.104,0.13,0,0.137,0.136,0.39,0,0.655,0.095,0.41,0,0.702,0.046,0.42,0,0.589,0.052,0.9,0,1,0.12,0.23,0,0.357,0.087,0.3,0,0.357
53150,20111115,-119.82,37.76,0.103,0.08,0,0.113,0.14,0.35,0,0.571,0.1,0.41,0,0.702,0.048,0.4,0,0.56,0.052,0.86,0,1,0.121,0.19,0,0.28,0.089,0.27,0,0.28
53150,20111116,-119.82,37.76,0.096,-0.02,0.006,0.012,0.138,0.27,0,0.429,0.103,0.38,0,0.637,0.051,0.38,0,0.429,0.051,0.84,0,1,0.117,0.1,0,0.155,0.088,0.2,0,0.167
53150,20111117,-119.82,37.76,0.088,-0.12,0.119,0,0.135,0.18,0,0.286,0.101,0.29,0,0.494,0.053,0.37,0,0.363,0.051,0.8,0,1,0.111,0.01,0,0.012,0.086,0.13,0,0.024
53150,20111118,-119.82,37.76,0.084,-0.2,0.238,0,0.131,0.11,0,0.143,0.099,0.21,0,0.351,0.056,0.34,0,0.357,0.051,0.74,0,0.982,0.107,-0.07,0.024,0,0.084,0.07,0,0
53150,20111119,-119.82,37.76,0.078,-0.28,0.357,0,0.128,0.04,0,0.071,0.096,0.13,0,0.208,0.058,0.3,0,0.25,0.051,0.66,0,0.851,0.103,-0.14,0.137,0,0.082,0.01,0,0
53150,20111120,-119.82,37.76,0.073,-0.37,0.464,0,0.123,-0.03,0,0,0.092,0.05,0,0.065,0.059,0.25,0,0.22,0.051,0.58,0,0.708,0.098,-0.22,0.196,0,0.08,-0.05,0,0
53150,20111121,-119.82,37.76,0.069,-0.43,0.601,0,0.119,-0.1,0,0,0.089,-0.01,0,0,0.059,0.19,0,0.113,0.051,0.5,0,0.565,0.094,-0.29,0.333,0,0.077,-0.1,0,0
53150,20111122,-119.82,37.76,0.07,-0.46,0.661,0,0.118,-0.13,0.006,0,0.087,-0.05,0,0,0.059,0.13,0,0,0.051,0.43,0,0.423,0.094,-0.32,0.393,0,0.077,-0.12,0,0
53150,20111123,-119.82,37.76,0.078,-0.4,0.655,0.012,0.121,-0.12,0.006,0,0.089,-0.04,0,0,0.059,0.07,0,0,0.051,0.36,0,0.28,0.099,-0.29,0.393,0.012,0.08,-0.11,0,0
53150,20111124,-119.82,37.76,0.087,-0.33,0.542,0.036,0.126,-0.08,0.006,0,0.093,0,0,0.054,0.06,0.02,0,0,0.051,0.3,0,0.137,0.106,-0.24,0.393,0.036,0.083,-0.07,0,0
53150,20111125,-119.82,37.76,0.094,-0.28,0.423,0.042,0.13,-0.05,0.006,0,0.098,0.04,0,0.054,0.062,0,0,0,0.051,0.25,0,0.012,0.112,-0.2,0.369,0.036,0.087,-0.04,0,0
53150,20111126,-119.82,37.76,0.099,-0.26,0.357,0.042,0.135,-0.02,0.006,0,0.102,0.07,0,0.054,0.064,-0.01,0,0,0.051,0.21,0,0,0.117,-0.18,0.256,0.036,0.09,-0.03,0,0
53150,20111127,-119.82,37.76,0.101,-0.27,0.393,0.042,0.138,-0.01,0.006,0,0.106,0.09,0,0.054,0.065,-0.02,0,0,0.052,0.17,0,0,0.12,-0.18,0.25,0.036,0.092,-0.04,0,0
53150,20111128,-119.82,37.76,0.102,-0.29,0.399,0.042,0.142,-0.01,0.006,0,0.109,0.09,0,0.054,0.067,-0.01,0,0,0.052,0.13,0,0,0.122,-0.19,0.256,0.036,0.094,-0.06,0,0
53150,20111129,-119.82,37.76,0.099,-0.36,0.482,0.042,0.142,-0.04,0.065,0,0.11,0.07,0,0.054,0.069,-0.03,0.048,0,0.052,0.09,0,0,0.121,-0.23,0.339,0.036,0.095,-0.1,0.119,0
53150,20111130,-119.82,37.76,0.091,-0.5,0.625,0.03,0.139,-0.12,0.208,0,0.108,0.01,0.006,0.054,0.071,-0.07,0.19,0,0.052,0.05,0,0,0.115,-0.35,0.482,0.024,0.092,-0.18,0.262,0
53150,20111201,-119.82,37.76,0.083,-0.64,0.768,0.006,0.135,-0.22,0.351,0,0.104,-0.1,0.137,0,0.071,-0.13,0.333,0,0.053,0.02,0,0,0.109,-0.47,0.625,0,0.089,-0.29,0.405,0
53150,20111202,-119.82,37.76,0.078,-0.74,0.911,0,0.131,-0.32,0.494,0,0.1,-0.21,0.28,0,0.071,-0.2,0.476,0,0.053,-0.01,0,0,0.105,-0.57,0.768,0,0.086,-0.38,0.548,0
53150,20111203,-119.82,37.76,0.076,-0.82,1,0,0.127,-0.41,0.637,0,0.096,-0.32,0.423,0,0.07,-0.28,0.619,0,0.053,-0.05,0.107,0,0.101,-0.66,0.911,0,0.084,-0.46,0.69,0
53150,20111204,-119.82,37.76,0.075,-0.87,1,0,0.124,-0.5,0.78,0,0.092,-0.41,0.565,0,0.069,-0.37,0.762,0,0.054,-0.08,0.238,0,0.1,-0.73,1,0,0.083,-0.52,0.833,0
53150,20111205,-119.82,37.76,0.076,-0.9,1,0,0.121,-0.57,0.923,0,0.089,-0.49,0.708,0,0.069,-0.45,0.905,0,0.054,-0.12,0.381,0,0.099,-0.78,1,0,0.082,-0.57,0.976,0
53150,20111206,-119.82,37.76,0.077,-0.93,1,0,0.119,-0.64,1,0,0.087,-0.56,0.851,0,0.068,-0.51,1,0,0.055,-0.17,0.524,0,0.098,-0.83,1,0,0.081,-0.61,1,0
53150,20111207,-119.82,37.76,0.079,-0.95,1,0,0.117,-0.7,1,0,0.085,-0.62,0.988,0,0.068,-0.55,1,0,0.055,-0.22,0.667,0,0.098,-0.87,1,0,0.081,-0.65,1,0
53150,20111208,-119.82,37.76,0.079,-0.98,1,0,0.115,-0.77,1,0,0.084,-0.67,1,0,0.067,-0.58,1,0,0.055,-0.27,0.81,0,0.097,-0.93,1,0,0.08,-0.68,1,0
53150,20111209,-119.82,37.76,0.079,-1.02,1,0,0.113,-0.83,1,0,0.083,-0.72,1,0,0.066,-0.6,1,0,0.055,-0.32,0.952,0,0.096,-0.98,1,0,0.079,-0.71,1,0
53150,20111210,-119.82,37.76,0.078,-1.05,1,0,0.112,-0.89,1,0,0.081,-0.76,1,0,0.066,-0.62,1,0,0.056,-0.35,0.988,0,0.095,-1.02,1,0,0.079,-0.73,1,0
53150,20111211,-119.82,37.76,0.077,-1.08,1,0,0.11,-0.94,1,0,0.08,-0.8,1,0,0.065,-0.64,1,0,0.056,-0.39,1,0,0.094,-1.06,1,0,0.078,-0.76,1,0
53150,20111212,-119.82,37.76,0.076,-1.11,1,0,0.109,-0.98,1,0,0.079,-0.84,1,0,0.065,-0.65,1,0,0.056,-0.42,1,0,0.092,-1.1,1,0,0.077,-0.78,1,0
53150,20111213,-119.82,37.76,0.075,-1.13,1,0,0.108,-1.02,1,0,0.078,-0.88,1,0,0.065,-0.67,1,0,0.056,-0.46,1,0,0.091,-1.14,1,0,0.076,-0.81,1,0
53150,20111214,-119.82,37.76,0.074,-1.14,1,0,0.107,-1.07,1,0,0.077,-0.93,1,0,0.064,-0.69,1,0,0.056,-0.49,1,0,0.09,-1.17,1,0,0.076,-0.84,1,0
53150,20111215,-119.82,37.76,0.073,-1.15,1,0,0.106,-1.11,1,0,0.076,-0.97,1,0,0.064,-0.73,1,0,0.056,-0.52,1,0,0.089,-1.2,1,0,0.075,-0.89,1,0
53150,20111216,-119.82,37.76,0.072,-1.16,1,0,0.105,-1.16,1,0,0.076,-1.01,1,0,0.064,-0.77,1,0,0.056,-0.55,1,0,0.089,-1.23,1,0,0.075,-0.94,1,0
53150,20111217,-119.82,37.76,0.071,-1.18,1,0,0.104,-1.21,1,0,0.075,-1.05,1,0,0.063,-0.82,1,0,0.056,-0.58,1,0,0.088,-1.27,1,0,0.074,-0.99,1,0
53150,20111218,-119.82,37.76,0.069,-1.22,1,0,0.103,-1.27,1,0,0.074,-1.09,1,0,0.063,-0.89,1,0,0.057,-0.6,1,0,0.086,-1.32,1,0,0.073,-1.05,1,0
53150,20111219,-119.82,37.76,0.068,-1.25,1,0,0.102,-1.33,1,0,0.074,-1.13,1,0,0.063,-0.95,1,0,0.057,-0.62,1,0,0.085,-1.37,1,0,0.072,-1.1,1,0
53150,20111220,-119.82,37.76,0.066,-1.28,1,0,0.1,-1.39,1,0,0.073,-1.16,1,0,0.062,-1.01,1,0,0.057,-0.63,1,0,0.083,-1.41,1,0,0.072,-1.15,1,0
53150,20111221,-119.82,37.76,0.065,-1.3,1,0,0.099,-1.43,1,0,0.073,-1.19,1,0,0.062,-1.06,1,0,0.057,-0.64,1,0,0.082,-1.43,1,0,0.071,-1.18,1,0
53150,20111222,-119.82,37.76,0.064,-1.33,1,0,0.098,-1.46,1,0,0.072,-1.22,1,0,0.062,-1.1,1,0,0.057,-0.65,1,0,0.081,-1.45,1,0,0.071,-1.2,1,0
53150,20111223,-119.82,37.76,0.062,-1.34,1,0,0.098,-1.48,1,0,0.072,-1.24,1,0,0.061,-1.13,1,0,0.057,-0.66,1,0,0.08,-1.46,1,0,0.07,-1.22,1,0
53150,20111224,-119.82,37.76,0.061,-1.35,1,0,0.097,-1.5,1,0,0.071,-1.26,1,0,0.061,-1.16,1,0,0.057,-0.67,1,0,0.079,-1.47,1,0,0.07,-1.24,1,0
53150,20111225,-119.82,37.76,0.06,-1.36,1,0,0.096,-1.51,1,0,0.071,-1.28,1,0,0.061,-1.17,1,0,0.057,-0.67,1,0,0.078,-1.48,1,0,0.069,-1.26,1,0
53150,20111226,-119.82,37.76,0.059,-1.37,1,0,0.095,-1.51,1,0,0.07,-1.3,1,0,0.06,-1.19,1,0,0.057,-0.68,1,0,0.077,-1.5,1,0,0.068,-1.29,1,0